OpenBCM V1.08-5-g2f4a (Linux)

Packet Radio Mailbox

IZ3LSV

[San Dona' di P. JN]

 Login: GUEST





  
CX2SA  > KEPS     15.06.12 03:31l 221 Lines 5826 Bytes #999 (0) @ WW
BID : ORB12166.W
Read: GUEST
Subj: Orbital Elements  12166.WEATHER
Path: IZ3LSV<IQ5KG<IK1NHL<CX2SA
Sent: 120615/0224Z @:CX2SA.SAL.URY.SA #:61421 [Salto] FBB7.00e $:ORB12166.W
From: CX2SA@CX2SA.SAL.URY.SA
To  : KEPS@AMSAT


HR AMSAT ORBITAL ELEMENTS FOR WEATHER SATELLITES
FROM WA5QGD FORT WORTH,TX June 14, 2012
Send SUBSCRIBE KEPS/UNSUBSCRIBE KEPS to majordomo@amsat.org only
BID: ORB12166.W
TO ALL RADIO AMATEURS BT

Satellite: NOAA-10
Catalog number: 16969
Epoch time:      12165.72585712
Element set:    0956
Inclination:      098.5805 deg
RA of node:       194.8415 deg
Eccentricity:    0.0011361
Arg of perigee:   244.1366 deg
Mean anomaly:     115.8618 deg
Mean motion:   14.27556856 rev/day
Decay rate:        7.5e-07 rev/day^2
Epoch rev:           33937
Checksum:              336

Satellite: NOAA-11
Catalog number: 19531
Epoch time:      12165.75053596
Element set:    0953
Inclination:      098.7306 deg
RA of node:       250.9816 deg
Eccentricity:    0.0010381
Arg of perigee:   232.2600 deg
Mean anomaly:     127.7636 deg
Mean motion:   14.14969834 rev/day
Decay rate:      -1.49e-06 rev/day^2
Epoch rev:           22402
Checksum:              301

Satellite: NOAA-12
Catalog number: 21263
Epoch time:      12165.95899888
Element set:    0453
Inclination:      098.7289 deg
RA of node:       187.6388 deg
Eccentricity:    0.0013086
Arg of perigee:   208.0345 deg
Mean anomaly:     152.0132 deg
Mean motion:   14.25500603 rev/day
Decay rate:        8.1e-07 rev/day^2
Epoch rev:           09609
Checksum:              316

Satellite: MET-3/5
Catalog number: 21655
Epoch time:      12166.49010021
Element set:     433
Inclination:      082.5553 deg
RA of node:       154.0929 deg
Eccentricity:    0.0012593
Arg of perigee:   334.1232 deg
Mean anomaly:     025.9259 deg
Mean motion:   13.17042172 rev/day
Decay rate:      -3.97e-06 rev/day^2
Epoch rev:             153
Checksum:              265

Satellite: MET-2/21
Catalog number: 22782
Epoch time:      12165.68536838
Element set:    0445
Inclination:      082.5485 deg
RA of node:       035.2933 deg
Eccentricity:    0.0022796
Arg of perigee:   158.7015 deg
Mean anomaly:     201.5106 deg
Mean motion:   13.83684184 rev/day
Decay rate:       -5.9e-07 rev/day^2
Epoch rev:           94868
Checksum:              333

Satellite: OKEAN-4
Catalog number: 23317
Epoch time:      12165.92961857
Element set:    0942
Inclination:      082.5406 deg
RA of node:       034.2535 deg
Eccentricity:    0.0022089
Arg of perigee:   007.5782 deg
Mean anomaly:     352.5767 deg
Mean motion:   14.83804994 rev/day
Decay rate:       9.52e-06 rev/day^2
Epoch rev:           95432
Checksum:              328

Satellite: NOAA-14
Catalog number: 23455
Epoch time:      12165.93330240
Element set:    0936
Inclination:      098.8271 deg
RA of node:       249.4729 deg
Eccentricity:    0.0009241
Arg of perigee:   335.3158 deg
Mean anomaly:     024.7567 deg
Mean motion:   14.13903058 rev/day
Decay rate:        5.6e-07 rev/day^2
Epoch rev:           90033
Checksum:              299

Satellite: NOAA-15
Catalog number: 25338
Epoch time:      12165.75685864
Element set:    0296
Inclination:      098.6897 deg
RA of node:       152.6968 deg
Eccentricity:    0.0011514
Arg of perigee:   115.7213 deg
Mean anomaly:     244.5127 deg
Mean motion:   14.25081344 rev/day
Decay rate:       2.39e-06 rev/day^2
Epoch rev:           73236
Checksum:              326

Satellite: RESURS
Catalog number: 25394
Epoch time:      12165.95938030
Element set:    0115
Inclination:      098.3184 deg
RA of node:       154.3663 deg
Eccentricity:    0.0000356
Arg of perigee:   248.8549 deg
Mean anomaly:     111.2593 deg
Mean motion:   14.24289200 rev/day
Decay rate:       -2.0e-08 rev/day^2
Epoch rev:           72394
Checksum:              290

Satellite: FENGYUN1
Catalog number: 25730
Epoch time:      12165.87840694
Element set:     626
Inclination:      098.8460 deg
RA of node:       124.9163 deg
Eccentricity:    0.0020415
Arg of perigee:   016.2342 deg
Mean anomaly:     343.9492 deg
Mean motion:   14.09595802 rev/day
Decay rate:      1.526e-05 rev/day^2
Epoch rev:           67414
Checksum:              305

Satellite: OKEAN-0
Catalog number: 25860
Epoch time:      12165.93480607
Element set:    0655
Inclination:      097.9362 deg
RA of node:       128.6445 deg
Eccentricity:    0.0000530
Arg of perigee:   050.7774 deg
Mean anomaly:     309.3480 deg
Mean motion:   14.74216389 rev/day
Decay rate:       5.48e-06 rev/day^2
Epoch rev:           69409
Checksum:              320

Satellite: NOAA-16
Catalog number: 26536
Epoch time:      12165.70864399
Element set:    0780
Inclination:      099.0946 deg
RA of node:       207.7785 deg
Eccentricity:    0.0011453
Arg of perigee:   093.3512 deg
Mean anomaly:     266.8963 deg
Mean motion:   14.12747112 rev/day
Decay rate:      -1.25e-06 rev/day^2
Epoch rev:           60454
Checksum:              323

Satellite: NOAA-17
Catalog number: 27453
Epoch time:      12165.86171849
Element set:    0737
Inclination:      098.3368 deg
RA of node:       193.0672 deg
Eccentricity:    0.0011998
Arg of perigee:   161.8495 deg
Mean anomaly:     198.3099 deg
Mean motion:   14.24444310 rev/day
Decay rate:        9.0e-07 rev/day^2
Epoch rev:           51828
Checksum:              342

Satellite: NOAA-18
Catalog number: 28654
Epoch time:      12165.87620872
Element set:    0214
Inclination:      099.0451 deg
RA of node:       123.9358 deg
Eccentricity:    0.0014479
Arg of perigee:   160.5243 deg
Mean anomaly:     199.6507 deg
Mean motion:   14.11661344 rev/day
Decay rate:       3.41e-06 rev/day^2
Epoch rev:           36409
Checksum:              309

Satellite: NOAA-19
Catalog number: 33591
Epoch time:      12165.88334822
Element set:    0406
Inclination:      098.8630 deg
RA of node:       105.7128 deg
Eccentricity:    0.0014698
Arg of perigee:   033.7072 deg
Mean anomaly:     326.5033 deg
Mean motion:   14.11350553 rev/day
Decay rate:       5.51e-06 rev/day^2
Epoch rev:           17254
Checksum:              292



Read previous mail | Read next mail


 18.12.2025 06:20:52lGo back Go up